TimeStamp,Battery,Peak
0:00:10,1.615,0.004
0:00:20,1.615,0.002
0:00:30,1.589,0.002
0:00:40,1.583,0.000
0:00:50,1.580,0.000
0:01:00,1.573,0.005
0:01:10,1.570,0.429
0:01:20,1.582,0.430
0:01:30,1.583,0.416
0:01:40,1.581,0.372
0:01:50,1.580,0.868
0:02:00,1.580,0.976
0:02:10,1.579,0.613
0:02:20,1.579,0.381
0:02:30,1.577,0.304
0:02:40,1.577,0.314
0:02:50,1.576,0.941
0:03:00,1.576,0.719
0:03:10,1.574,0.531
0:03:20,1.574,0.398
0:03:30,1.573,0.808
0:03:40,1.572,0.834
0:03:50,1.571,0.788
0:04:00,1.570,0.526
0:04:10,1.570,0.306
0:04:20,1.569,0.384
0:04:30,1.570,0.219
0:04:40,1.568,0.137
0:04:50,1.567,0.106
0:05:00,1.567,0.090
0:05:10,1.567,0.091
0:05:20,1.565,0.387
0:05:30,1.565,0.462
0:05:40,1.564,0.278
0:05:50,1.564,0.157
0:06:00,1.563,0.099
0:06:10,1.563,0.287
0:06:20,1.561,0.447
0:06:30,1.561,0.320
0:06:40,1.560,0.175
0:06:50,1.560,0.103
0:07:00,1.559,0.365
0:07:10,1.558,0.336
0:07:20,1.558,0.345
0:07:30,1.557,0.230
0:07:40,1.557,0.124
0:07:50,1.557,0.114
0:08:00,1.557,0.062
0:08:10,1.556,0.045
0:08:20,1.555,0.051
0:08:30,1.555,0.045
0:08:40,1.554,0.043
0:08:50,1.554,0.115
0:09:00,1.553,0.110
0:09:10,1.553,0.069
0:09:20,1.552,0.042
0:09:30,1.551,0.039
0:09:40,1.551,0.098
0:09:50,1.550,0.130
0:10:00,1.550,0.080
0:10:10,1.549,0.043
0:10:20,1.548,0.089
0:10:30,1.548,0.101
0:10:40,1.548,0.088
0:10:50,1.547,0.095
0:11:00,1.547,0.052
0:11:10,1.546,0.044
0:11:20,1.546,0.053
0:11:30,1.545,0.027
0:11:40,1.545,0.032
0:11:50,1.544,0.034
0:12:00,1.544,0.038
0:12:10,1.544,0.028
0:12:20,1.543,0.066
0:12:30,1.542,0.049
0:12:40,1.542,0.036
0:12:50,1.541,0.024
0:13:00,1.541,0.027
0:13:10,1.541,0.055
0:13:20,1.540,0.065
0:13:30,1.539,0.041
0:13:40,1.539,0.031
0:13:50,1.538,0.051
0:14:00,1.538,0.057
0:14:10,1.537,0.050
0:14:20,1.537,0.058
0:14:30,1.537,0.030
0:14:40,1.536,0.030
0:14:50,1.536,0.036
0:15:00,1.535,0.019
0:15:10,1.535,0.024
0:15:20,1.535,0.024
0:15:30,1.535,0.028
0:15:40,1.534,0.020
0:15:50,1.534,0.047
0:16:00,1.533,0.031
0:16:10,1.532,0.024
0:16:20,1.532,0.018
0:16:30,1.532,0.018
0:16:40,1.531,0.036
0:16:50,1.531,0.044
0:17:00,1.530,0.027
0:17:10,1.530,0.022
0:17:20,1.529,0.043
0:17:30,1.528,0.039
0:17:40,1.528,1.858
0:17:50,1.528,1.645
0:18:00,1.528,0.906
0:18:10,1.527,1.504
0:18:20,1.527,1.086
0:18:30,1.527,0.981
0:18:40,1.526,1.023
0:18:50,1.526,1.210
0:19:00,1.525,0.998
0:19:10,1.525,1.159
0:19:20,1.525,1.798
0:19:30,1.524,1.357
0:19:40,1.524,1.032
0:19:50,1.523,1.046
0:20:00,1.523,0.971
0:20:10,1.522,1.844
0:20:20,1.522,1.702
0:20:30,1.522,1.424
0:20:40,1.521,1.290
0:20:50,1.521,1.757
0:21:00,1.520,1.798
0:21:10,1.520,1.763
0:21:20,1.519,1.519
0:21:30,1.520,0.842
0:21:40,1.519,1.384
0:21:50,1.519,1.004
0:22:00,1.519,1.029
0:22:10,1.518,1.014
0:22:20,1.518,1.003
0:22:30,1.518,1.001
0:22:40,1.517,1.614
0:22:50,1.516,1.790
0:23:00,1.516,1.310
0:23:10,1.516,1.009
0:23:20,1.515,1.014
0:23:30,1.515,1.222
0:23:40,1.515,1.827
0:23:50,1.514,1.563
0:24:00,1.514,1.376
0:24:10,1.513,1.333
0:24:20,1.513,1.920
0:24:30,1.513,1.698
0:24:40,1.512,1.874
0:24:50,1.512,1.423
0:25:00,1.512,0.774
0:25:10,1.512,1.297
0:25:20,1.512,0.927
0:25:30,1.512,1.015
0:25:40,1.511,0.994
0:25:50,1.510,0.997
0:26:00,1.510,1.021
0:26:10,1.509,1.685
0:26:20,1.509,1.659
0:26:30,1.509,1.252
0:26:40,1.509,0.989
0:26:50,1.508,1.007
0:27:00,1.509,1.204
0:27:10,1.507,1.686
0:27:20,1.506,1.618
0:27:30,1.507,1.291
0:27:40,1.507,1.368
0:27:50,1.506,1.901
0:28:00,1.506,1.633
0:28:10,1.506,1.900
0:28:20,1.505,1.311
0:28:30,1.505,1.053
0:28:40,1.505,1.194
0:28:50,1.504,0.879
0:29:00,1.504,1.026
0:29:10,1.504,1.024
0:29:20,1.503,0.991
0:29:30,1.503,0.971
0:29:40,1.503,1.663
0:29:50,1.503,1.782
0:30:00,1.503,1.191
0:30:10,1.503,1.049
0:30:20,1.502,0.982
0:30:30,1.502,1.237
0:30:40,1.501,1.837
0:30:50,1.500,1.583
0:31:00,1.500,1.497
0:31:10,1.500,1.298
0:31:20,1.499,1.783
0:31:30,1.499,1.895
0:31:40,1.498,1.822
0:31:50,1.499,1.211
0:32:00,1.499,1.165
0:32:10,1.498,1.125
0:32:20,1.498,0.850
0:32:30,1.498,0.993
0:32:40,1.497,0.983
0:32:50,1.497,1.040
0:33:00,1.497,0.996
0:33:10,1.496,1.636
0:33:20,1.496,1.786
0:33:30,1.496,1.122
0:33:40,1.496,1.042
0:33:50,1.496,0.979
0:34:00,1.495,1.655
0:34:10,1.495,1.818
0:34:20,1.494,1.452
0:34:30,1.494,1.380
0:34:40,1.494,1.303
0:34:50,1.493,1.880
0:35:00,1.493,1.837
0:35:10,1.493,1.851
0:35:20,1.493,1.136
0:35:30,1.493,1.242
0:35:40,1.493,1.362
0:35:50,1.492,0.828
0:36:00,1.492,1.015
0:36:10,1.491,0.984
0:36:20,1.492,1.045
0:36:30,1.490,1.024
0:36:40,1.491,1.758
0:36:50,1.490,1.646
0:37:00,1.490,1.075
0:37:10,1.490,1.015
0:37:20,1.490,1.031
0:37:30,1.490,1.767
0:37:40,1.489,1.710
0:37:50,1.489,1.475
0:38:00,1.488,1.281
0:38:10,1.488,1.654
0:38:20,1.487,1.859
0:38:30,1.487,1.704
0:38:40,1.487,1.885
0:38:50,1.487,1.047
0:39:00,1.487,1.418
0:39:10,1.487,1.253
0:39:20,1.487,0.859
0:39:30,1.486,0.969
0:39:40,1.486,0.953
0:39:50,1.486,1.066
0:40:00,1.486,1.159
0:40:10,1.485,1.802
0:40:20,1.485,1.570
0:40:30,1.485,1.021
0:40:40,1.484,0.993
0:40:50,1.484,1.004
0:41:00,1.484,1.787
0:41:10,1.483,1.660
0:41:20,1.483,1.515
0:41:30,1.483,1.358
0:41:40,1.483,1.829
0:41:50,1.483,1.769
0:42:00,1.482,1.858
0:42:10,1.482,1.810
0:42:20,1.482,0.999
0:42:30,1.482,1.596
0:42:40,1.481,1.195
